Regional Weather Roundup
Issued by NWS

Home | Current Version | Previous Version | Graphics & Text | Print | Product List | Glossary On
Versions: 1 2 3 4 5 6 7 8 9 10 11 12 13 14 15 16 17 18 19 20 21 22 23 24 25 26 27 28 29 30 31 32 33 34 35 36 37 38 39 40 41 42 43 44 45 46 47 48 49 50
000
ASUS43 KLOT 251404
RWRIL

ILLINOIS REGIONAL WEATHER ROUNDUP
NATIONAL WEATHER SERVICE CHICAGO/ROMEOVILLE IL
900 AM CDT MON SEP 25 2017

NOTE: "FAIR" INDICATES FEW OR NO CLOUDS BELOW 12,000 FEET WITH NO
SIGNIFICANT WEATHER AND/OR OBSTRUCTIONS TO VISIBILITY.

* THESE STATIONS ARE NOT UNDER NWS QUALITY CONTROL. THEY ALSO MAY NOT
  REPORT WEATHER SUCH AS PRECIPITATION OR FOG.

ILZ001-002-007-009-015-016-024-251500-
NORTHWEST ILLINOIS

CITY           SKY/WX    TMP DP  RH WIND       PRES   REMARKS
MOLINE         SUNNY     73  62  68 E3        29.98S
STERLING*      SUNNY     72  63  73 VRB5      30.02R
SAVANNA*       SUNNY     71  63  75 SE3       30.00S
$$

ILZ003-004-008-010-011-017-018-251500-
NORTH CENTRAL ILLINOIS

CITY           SKY/WX    TMP DP  RH WIND       PRES   REMARKS
ROCKFORD       MOSUNNY   70  62  76 CALM      30.02S
FREEPORT*      SUNNY     71  62  71 CALM      30.03S
ROCHELLE*      PTSUNNY   75  62  63 S3        30.02S
DE KALB*       SUNNY     74  63  67 S6        30.03S
$$

ILZ005-006-012>014-019>023-251500-
NORTHEAST ILLINOIS

CITY           SKY/WX    TMP DP  RH WIND       PRES   REMARKS
CHICAGO-OHARE  MOSUNNY   77  59  53 SE5       30.02R
CHICAGO-MIDWAY MOSUNNY   77  59  53 S7        30.02S
AURORA         SUNNY     73  63  70 SE3       30.03R
LANSING*       SUNNY     74  62  65 S5        30.04S
JOLIET*        SUNNY     74  63  67 SE5       30.03R
WAUKEGAN       SUNNY     76  63  64 S5        30.01S
DUPAGE AIRPORT SUNNY     73  63  70 S5        30.02R
KANKAKEE*      SUNNY     73  62  67 S3        30.05S
WHEELING       SUNNY     76  63  64 SE6       30.03S
MORRIS*        SUNNY     72  62  70 SE3       30.02R
NORTHERLY ISL    N/A     76  62  62 SE3         N/A
$$

LMZ740>746-251500-
SOUTHERN LAKE MICHIGAN

STATION/POSITION SKY/WX   TEMP    WIND        PRES    VSBY  WAVE
                          AIR SEA DIR/SP/G                  HT/PER
                          (F)     (DEG/KT/KT) (MB)    (MI)  (FT/S)
SOUTHERN BUOY              72 71  160/  8/ 10 1016.5          1
WILMETTE HARBOR            72 69  160/  6/  8   N/A           1
HARRISON CRIB              73     170/  9/ 11   N/A
BURNHAM HARBOR             76                   N/A
CALUMET HARBOR             73     190/  5/  7 1016.3R
BURNS HARBOR               75     170/  6/  9 1017.6R
MICHIGAN CITY              74     140/  9/ 10   N/A
MICHIGAN CITY 6N           72 72  170/  6/  8   N/A           1
ST. JOSEPH                 72 71  180/  6/  8 1017.3R         1
$$

ILZ025>027-034>036-040-047-049-050-058-095>099-251500-
WEST-CENTRAL ILLINOIS

CITY           SKY/WX    TMP DP  RH WIND       PRES   REMARKS
QUINCY         SUNNY     74  65  73 S7        30.00R
GALESBURG*     SUNNY     73  64  73 S5        30.01S
MACOMB*        SUNNY     71  64  80 CALM      30.02S
$$

ILZ028>032-037-038-041>044-048-051>054-059>061-251500-
CENTRAL ILLINOIS

CITY           SKY/WX    TMP DP  RH WIND       PRES   REMARKS
BLOOMINGTON    MOSUNNY   75  65  70 S6        30.04S
DECATUR        SUNNY     74  64  71 S6        30.04R
PEORIA         SUNNY     74  64  71 S3        30.01S
LACON*         MOSUNNY   74  63  68 S3        30.00S
LINCOLN*       SUNNY     74  65  74 S3        30.03R
SPRINGFIELD    SUNNY     77  66  68 S6        30.02R
TAYLORVILLE    NOT AVBL
$$

ILZ033-039-045-046-055>057-062-063-251500-
EAST-CENTRAL ILLINOIS

CITY           SKY/WX    TMP DP  RH WIND       PRES   REMARKS
CHAMPAIGN      SUNNY     76  61  59 SE6       30.05R
MATTOON        SUNNY     75  65  70 S3        30.04S
PARIS*         SUNNY     69  62  76 CALM      30.06R
$$

ILZ079-100>102-251500-
SOUTHWEST ILLINOIS

CITY           SKY/WX    TMP DP  RH WIND       PRES   REMARKS
ALTON          SUNNY     72  68  88 SE3       30.03R
BELLEVILLE     SUNNY     73  67  80 CALM      30.02R
CAHOKIA*       SUNNY     75  66  73 CALM      30.03R
SPARTA*        SUNNY     73  66  78 CALM      30.05R
$$

ILZ064>066-069>071-074>076-080>082-084>086-088>090-092>094-251500-
SOUTH-CENTRAL ILLINOIS

CITY           SKY/WX    TMP DP  RH WIND       PRES   REMARKS
CARBONDALE     SUNNY     73  69  87 CALM      30.04R
CAIRO*         SUNNY     73  69  86 CALM      30.04R
EFFINGHAM*     SUNNY     74  66  77 CALM      30.06S
MARION         SUNNY     73  73 100 SE6       30.05R
MT. VERNON       N/A     73  66  78 CALM      30.04S
CENTRALIA*     SUNNY     77  68  72 CALM      30.03S
SALEM*         SUNNY     77  65  68 CALM      30.05S
METROPOLIS*    LGT RAIN  74  69  83 CALM      30.05R
$$

ILZ067-068-072-073-078-083-087-091-251500-
SOUTHEAST ILLINOIS

CITY           SKY/WX    TMP DP  RH WIND       PRES   REMARKS
LAWRENCEVILLE  MOSUNNY   74  66  76 CALM      30.05R
FLORA*         MOSUNNY   76  66  71 CALM      30.04S
FAIRFIELD*     SUNNY     77  65  66 CALM      30.04S
HARRISBURG*    SUNNY     72  67  84 CALM      30.05R
ROBINSON*      MOSUNNY   73  65  74 CALM      30.06R
CARMI*         SUNNY     75  69  80 CALM      30.04R
$$

ABBREVIATIONS USED IN REMARKS
   TC - TEMPERATURE IN CELSIUS
  WCI - WIND CHILL INDEX
   HX - HEAT INDEX
  VSB - VISIBILITY
$$





USA.gov is the U.S. government's official web portal to all federal, state and local government web resources and services.